Theta_e
352 350 353 352 352 350 345 339 318 324 323 315 316 319 318 331 331 329 328 333 327 335 337 335 333 332 329 326 327 333 332 326 329 320 318 335 348 352 354 355 356 357 357 358 360 362 363 364 365 365 364 364 364 364 365 365 365 365 364 363 363 363 362 363 362 362 362 363 362 361 359 361 359 358 358 360 362 363 363 362 362 362 361 360 360 360 359 359 361 362 361 361 360 360 361 360 361
353 353 354 353 349 346 331 339 321 318 318 315 317 322 325 329 330 327 328 331 331 334 335 334 334 337 340 334 334 332 331 335 337 334 337 344 349 351 355 356 356 355 357 358 360 361 362 365 365 365 364 363 364 365 366 365 365 364 364 363 363 363 363 362 362 362 362 362 362 361 360 358 359 361 361 361 362 362 362 362 362 362 361 361 360 359 359 361 360 361 361 361 361 360 361 360 359
351 351 349 353 348 342 339 335 315 316 313 311 317 323 330 327 327 330 334 335 336 337 335 334 337 338 336 334 330 330 325 339 337 339 338 346 342 346 355 357 358 357 358 359 360 362 363 364 364 365 363 364 365 366 365 364 364 363 363 362 362 363 362 362 362 363 363 362 361 359 359 360 360 362 362 361 361 361 361 361 361 362 361 360 360 359 362 361 360 360 360 361 360 360 360 360 360
352 351 346 346 330 339 326 324 320 319 315 317 317 327 327 328 329 334 336 337 338 336 335 332 331 340 333 326 331 336 334 333 338 338 337 341 345 349 355 357 360 359 359 359 361 362 362 364 365 365 364 365 366 366 365 364 363 363 363 362 362 362 362 363 362 362 363 362 362 362 360 362 362 362 362 360 361 361 361 360 361 362 362 361 360 360 360 360 361 360 360 360 360 361 361 361 360
350 350 351 343 338 325 326 323 323 322 316 319 318 327 329 331 332 335 336 339 337 336 334 333 333 338 340 335 336 333 332 339 339 342 341 345 351 352 355 357 357 358 358 360 361 361 362 365 366 365 365 365 366 365 365 364 363 363 363 363 363 363 362 362 362 362 362 362 362 362 362 362 361 361 361 360 360 360 360 361 362 362 362 363 362 360 360 361 362 361 360 360 360 359 358 359 357
349 348 350 346 330 343 332 321 321 319 325 326 322 325 331 335 334 335 335 338 338 336 336 334 332 332 333 335 339 334 339 332 339 342 343 345 350 353 355 358 357 357 359 361 361 362 362 365 365 365 365 366 365 364 365 364 364 364 364 364 363 362 362 362 362 362 362 362 363 362 362 361 360 361 360 360 360 360 361 361 362 362 363 362 364 363 363 362 361 361 360 360 361 359 359 359 357
342 342 340 340 338 338 321 320 319 321 325 329 326 328 332 335 335 335 334 335 338 337 338 335 338 336 331 336 340 342 345 343 341 342 347 349 352 355 356 356 356 357 359 360 361 363 362 364 365 365 366 364 365 365 365 364 364 363 362 363 362 362 362 362 362 362 362 362 362 362 362 361 362 361 360 359 360 360 361 361 362 361 362 363 363 363 363 361 359 361 361 360 359 359 359 357 355
349 337 334 327 327 329 323 321 321 324 326 332 332 330 334 336 336 335 334 334 331 332 335 338 337 337 332 339 331 342 344 345 345 348 351 351 352 354 355 356 355 356 358 361 362 362 365 364 365 365 365 365 365 366 364 364 363 363 364 362 361 361 362 362 361 361 362 362 362 362 361 361 361 361 361 359 360 360 360 360 361 362 362 362 363 364 363 361 358 360 359 360 359 359 359 358 358
342 340 342 331 323 326 322 320 321 328 328 332 332 337 338 338 337 336 334 336 336 336 335 336 337 330 332 334 334 341 343 346 349 351 351 351 352 354 354 355 354 355 358 359 361 363 363 365 365 365 365 364 364 365 364 363 363 364 363 362 361 361 362 362 362 362 362 362 363 362 361 361 361 362 361 360 360 360 361 361 361 361 361 362 361 363 362 362 360 359 360 360 360 359 358 358 358
339 340 328 327 327 318 319 320 320 324 328 332 333 335 337 337 337 338 335 333 335 335 336 338 338 334 335 331 334 339 342 348 349 349 351 350 352 354 354 355 356 355 356 358 361 361 363 366 364 365 364 364 364 365 364 363 364 364 363 362 362 361 361 361 362 362 362 362 363 362 361 361 362 362 362 362 362 361 362 362 360 360 361 362 361 361 362 361 360 360 359 357 359 359 358 358 357
331 337 337 324 321 316 316 318 322 325 328 333 335 337 339 339 337 336 336 336 338 334 336 338 334 333 335 333 336 346 348 348 346 344 349 350 353 353 354 356 357 357 356 358 360 362 363 365 366 365 365 364 365 364 364 364 363 362 362 362 361 361 362 362 362 363 363 363 363 363 363 363 363 363 363 362 362 363 363 363 362 362 362 361 361 362 362 361 361 361 359 361 362 360 358 358 358
330 330 332 321 319 318 319 320 321 325 328 331 332 338 340 338 338 334 335 331 334 334 334 337 333 338 333 332 334 342 346 346 346 347 350 352 352 354 354 355 357 358 358 358 360 362 363 365 365 365 364 365 365 365 365 364 362 361 362 361 361 361 362 362 363 363 363 364 364 364 364 364 364 364 363 363 363 363 363 364 363 363 362 361 361 361 361 361 362 362 361 362 361 360 359 359 359
332 335 329 322 319 321 322 321 322 325 325 328 331 337 341 336 334 336 335 334 334 333 333 339 339 339 329 331 339 342 341 344 348 349 350 351 352 354 355 355 357 358 359 360 360 362 363 363 364 365 364 365 365 366 365 364 363 362 363 363 362 362 363 364 364 363 364 364 364 363 364 364 363 362 363 363 363 362 363 364 363 363 363 362 361 362 361 363 362 362 362 360 360 360 359 357 357
334 335 330 320 326 322 321 322 325 322 322 329 336 340 339 334 336 337 335 331 332 332 337 341 340 340 333 335 336 336 340 346 347 350 351 352 353 353 353 355 356 357 359 360 360 361 361 363 363 363 365 365 366 366 366 364 363 363 363 364 364 364 364 364 364 364 364 364 363 363 363 363 363 363 362 362 361 361 361 362 363 362 362 363 361 360 362 362 362 362 361 361 361 360 358 358 356
336 340 332 326 322 322 324 321 322 322 322 331 336 337 336 342 341 336 335 333 333 340 341 344 342 336 329 331 330 335 341 345 348 350 350 351 352 353 354 355 356 357 358 358 359 361 360 362 361 363 365 365 366 365 367 365 364 363 363 363 364 364 364 364 364 363 363 362 362 362 362 363 362 362 362 362 362 362 361 362 362 362 364 363 362 363 361 364 363 362 362 361 361 360 360 358 355
342 338 332 323 319 319 322 323 324 322 322 333 338 338 337 338 341 335 336 338 336 341 341 334 342 333 338 336 337 340 344 347 349 349 350 350 352 352 353 354 355 356 357 358 359 360 361 361 362 362 364 365 366 365 365 366 365 365 364 365 365 364 363 363 363 363 362 362 363 363 363 364 363 362 362 363 362 362 362 362 361 362 362 363 364 364 363 363 362 361 361 361 360 360 359 358 356
344 340 325 323 319 321 322 323 324 318 327 334 338 337 332 332 339 339 342 342 335 335 338 340 337 341 338 339 343 344 346 348 348 349 349 349 348 348 351 352 353 354 355 357 359 359 360 361 362 362 364 365 365 365 365 366 365 366 366 365 364 364 364 363 363 363 364 363 364 363 362 365 368 367 365 364 363 364 363 362 362 363 363 363 363 363 363 363 361 361 360 358 358 359 359 359 358
340 328 324 320 324 321 325 323 325 326 328 333 335 336 335 331 335 337 341 337 338 337 336 339 342 341 343 345 346 346 347 345 346 345 344 344 345 345 347 349 350 350 352 355 358 359 359 361 362 362 363 364 365 365 365 366 365 365 367 366 366 365 364 363 364 365 363 366 364 365 368 367 366 367 366 363 367 366 364 362 361 362 362 363 363 364 363 363 362 360 360 360 359 360 360 366 364
332 327 326 322 326 327 330 329 328 327 327 335 336 337 335 333 335 337 334 333 334 333 335 337 337 340 343 344 344 344 344 344 345 343 343 342 343 344 345 347 348 349 351 354 355 358 360 360 361 361 362 364 365 365 364 365 366 367 367 366 366 364 365 366 365 366 365 366 366 365 366 365 365 365 365 363 363 364 363 362 362 362 362 362 362 362 361 361 361 361 361 360 362 360 365 365 365
336 329 322 325 330 331 332 333 332 330 330 333 334 335 335 336 336 339 334 332 334 332 332 334 334 334 337 341 342 342 343 342 343 344 343 343 344 344 345 345 345 349 350 353 354 357 358 359 361 361 362 363 364 363 364 364 365 367 365 365 364 365 366 365 365 365 366 366 365 365 363 365 364 365 364 364 362 364 364 364 363 363 362 363 362 362 360 360 359 360 362 361 361 361 365 363 362
335 330 325 328 331 329 332 332 331 332 332 334 334 335 333 336 336 335 335 331 331 334 337 335 334 335 337 339 341 341 340 341 342 343 343 344 345 345 346 346 346 350 352 354 355 354 357 358 360 361 362 363 363 362 363 362 365 363 364 364 364 363 364 364 364 365 365 366 366 365 362 364 362 363 364 364 363 363 363 364 364 364 364 365 363 367 365 364 364 365 366 364 364 362 362 363 363
335 331 333 333 333 328 333 332 332 332 334 334 334 331 332 338 336 335 335 330 330 334 338 339 339 339 338 338 339 340 340 340 341 342 342 342 342 343 346 348 350 352 353 352 353 355 356 357 359 361 361 362 363 363 363 363 365 363 363 363 365 364 364 364 363 364 363 365 364 363 363 363 362 363 364 363 363 363 362 362 364 365 364 367 367 362 357 359 362 363 363 363 364 364 363 364 364
325 332 334 336 336 332 336 335 336 334 332 333 332 334 336 334 333 336 335 333 336 341 342 341 341 341 341 341 340 339 338 339 340 341 343 342 343 344 346 347 346 347 351 352 354 355 356 357 359 361 360 362 362 363 363 364 363 364 364 364 363 364 365 363 362 362 364 366 364 365 360 360 360 361 362 363 362 363 360 360 361 363 363 363 366 361 357 359 361 362 363 363 365 364 365 366 366
331 327 333 332 335 333 337 335 334 333 331 331 335 337 333 333 329 336 334 337 338 342 343 343 343 343 342 340 340 338 339 339 340 342 344 343 344 344 346 345 348 350 352 352 353 354 356 355 357 359 359 360 361 363 363 362 363 362 362 364 364 363 363 362 361 362 366 365 366 364 364 362 360 360 362 362 362 363 361 361 362 361 361 364 367 366 359 360 362 364 365 364 363 366 364 367 366
327 326 331 332 333 334 334 333 331 331 332 334 334 331 332 334 333 335 333 337 340 342 343 342 343 342 341 340 340 339 340 340 341 343 345 345 346 347 348 348 349 350 349 351 353 353 355 356 357 356 357 360 360 360 360 360 362 361 362 362 362 364 363 362 362 365 364 364 365 367 365 361 360 362 361 361 363 363 363 363 361 361 364 366 367 365 363 364 363 362 363 364 364 365 365 364 364
329 329 331 330 330 330 331 330 330 330 330 333 331 330 333 335 335 332 335 337 341 342 342 342 342 340 340 340 341 340 340 339 341 342 343 345 346 345 346 346 348 347 349 351 352 353 354 355 355 354 356 358 359 359 360 360 360 360 361 362 362 364 363 363 365 363 362 362 362 365 364 362 360 360 361 362 361 363 364 364 364 363 363 365 365 362 363 363 363 364 362 365 363 363 363 364 362
326 328 329 329 330 331 331 327 327 328 328 331 328 328 330 335 332 326 336 339 341 341 340 341 340 339 340 340 340 341 340 340 341 344 344 344 345 344 346 347 347 348 350 350 352 353 354 355 354 356 357 359 358 357 359 359 360 359 361 361 361 362 363 364 363 362 362 361 363 368 367 367 363 361 362 363 362 363 364 365 364 364 363 363 365 365 365 364 363 363 364 363 363 361 360 361 362
325 323 322 322 323 323 323 324 324 326 324 329 329 327 331 332 331 328 335 340 341 339 339 339 339 339 339 340 340 341 341 342 343 344 342 342 342 344 345 346 347 348 349 349 352 354 354 354 354 355 356 357 358 357 359 357 358 358 360 360 360 362 363 362 361 362 363 363 366 367 367 365 366 364 365 365 364 363 363 364 365 364 362 364 366 366 365 366 365 365 365 367 366 363 363 365 365
324 322 316 319 319 318 321 320 322 324 323 328 330 326 324 326 325 332 337 340 340 339 338 339 339 339 339 340 340 340 340 342 344 343 344 344 345 346 345 347 347 348 351 351 352 353 352 354 354 355 356 357 357 356 356 357 358 358 358 359 360 360 361 361 361 362 364 365 367 368 368 368 369 367 367 367 366 364 363 365 362 364 365 366 366 363 365 366 365 364 366 366 365 366 365 365 365
320 320 317 315 316 315 321 322 323 322 324 328 329 313 319 324 328 332 338 339 339 338 337 338 339 339 339 339 339 340 341 341 342 344 345 346 346 346 346 348 349 349 351 352 352 352 353 355 355 354 355 355 357 357 358 357 358 358 359 359 360 360 360 360 362 363 364 365 365 367 367 369 369 370 369 368 367 365 365 365 364 363 365 368 368 363 363 363 363 362 362 363 363 366 363 364 362
311 313 315 310 310 312 319 320 322 319 326 327 327 313 318 324 328 332 338 339 338 336 337 338 338 338 339 338 339 339 340 342 342 345 346 347 348 348 348 349 350 351 352 352 351 352 354 354 354 353 355 355 356 357 357 358 358 358 357 359 359 361 362 361 360 362 363 363 364 363 366 368 370 371 370 369 367 366 364 364 363 364 367 369 365 366 366 364 363 363 366 364 364 362 360 362 361
311 306 304 310 308 312 316 319 321 318 324 328 324 315 317 322 327 332 338 339 338 336 337 337 338 338 338 339 338 338 339 341 342 344 346 347 348 348 348 348 349 349 351 352 352 353 353 355 356 354 354 355 355 356 358 359 359 359 359 358 359 360 361 361 362 360 361 361 362 362 366 368 370 371 371 370 368 367 364 363 363 368 370 368 367 368 366 363 364 364 365 363 361 358 360 357 359
307 305 306 306 309 310 314 319 321 322 323 326 323 315 319 321 327 332 337 338 337 337 337 337 337 338 338 338 338 338 338 339 341 343 345 347 348 348 348 348 348 349 350 352 353 353 354 354 356 354 353 354 355 356 358 358 359 361 360 359 358 360 360 361 361 362 361 361 360 359 364 367 369 371 372 371 368 367 365 365 365 367 369 366 367 366 364 364 361 356 364 366 366 360 355 348 351
303 306 305 308 307 310 310 316 317 320 321 319 323 318 318 322 327 332 336 337 336 336 337 337 337 337 338 338 338 338 338 339 339 342 344 347 348 349 349 350 349 349 350 351 353 353 353 354 354 355 355 354 355 356 356 357 359 360 359 359 361 359 359 358 359 360 360 359 360 360 365 367 368 371 372 371 369 368 367 366 366 369 368 369 367 366 364 362 359 359 362 366 365 362 354 349 348
302 303 303 304 307 310 312 312 316 317 319 318 321 320 319 322 327 331 334 336 336 336 337 337 337 337 338 338 338 338 338 339 340 343 345 346 348 349 350 350 349 349 349 350 353 355 355 355 356 356 355 355 354 356 357 357 358 359 357 358 358 359 359 359 359 359 358 360 358 362 367 367 368 370 371 371 370 368 368 368 368 369 369 369 368 365 362 360 357 357 359 365 362 357 353 352 352
304 305 305 306 305 307 308 313 315 317 317 316 318 317 319 322 325 331 334 336 335 336 338 338 338 338 338 338 338 338 339 339 342 344 345 347 348 349 349 350 349 349 349 350 352 354 355 356 356 355 356 355 356 355 354 354 354 353 351 353 354 355 357 357 359 357 358 357 359 363 366 368 369 370 371 371 371 369 368 367 368 369 368 368 366 364 363 355 354 356 361 362 358 356 355 353 353
307 307 306 306 307 309 310 310 313 316 313 314 316 318 318 320 324 329 333 335 335 335 336 336 337 337 337 338 338 339 339 340 343 344 345 346 347 349 350 351 350 349 350 350 351 352 354 354 353 353 355 356 354 352 352 352 351 351 351 350 348 351 355 357 357 357 357 356 360 363 366 366 369 369 370 370 370 369 369 369 369 368 368 367 367 365 367 366 368 366 365 365 356 354 354 353 352
305 305 305 306 307 307 311 309 312 315 312 313 317 316 318 320 324 328 333 333 332 333 334 336 336 337 338 338 338 339 341 343 344 344 345 346 347 348 349 350 351 348 348 349 349 350 353 354 354 354 354 354 354 355 354 354 355 353 351 350 348 349 353 353 353 357 355 356 363 365 366 367 368 369 370 371 371 370 370 368 368 368 369 368 368 368 368 366 368 366 365 362 360 351 352 351 351
305 304 304 304 306 307 309 310 312 312 313 311 315 314 316 320 323 328 331 332 333 335 335 336 337 337 337 338 339 340 340 341 343 344 345 345 347 348 348 349 350 350 350 349 350 350 352 353 354 356 355 354 354 356 356 355 357 357 354 353 351 350 354 355 353 356 359 357 360 365 366 367 368 368 370 371 370 369 369 368 368 370 369 369 368 367 368 367 368 366 364 360 355 353 354 355 354
302 304 303 302 306 305 305 309 309 311 311 311 314 312 314 318 324 327 331 332 334 336 336 337 338 337 337 338 339 339 339 340 341 342 343 345 346 347 348 348 349 351 351 350 349 349 351 353 354 355 356 356 356 357 357 358 359 359 359 358 356 353 353 355 358 359 359 358 357 363 367 368 368 367 368 369 370 370 370 368 368 368 371 371 369 367 367 366 367 366 364 362 358 349 345 351 353
302 303 304 304 304 306 306 307 308 310 311 311 311 310 310 316 318 322 329 333 333 335 335 337 338 340 340 341 341 341 340 341 341 342 343 344 345 346 347 349 350 350 350 350 350 349 350 351 354 356 356 356 357 357 357 359 359 358 358 358 357 355 356 354 353 352 355 357 357 361 364 367 367 367 368 369 369 370 370 369 368 368 369 370 370 367 367 365 367 367 366 364 359 350 345 347 353
300 303 304 305 307 306 307 308 307 306 307 310 309 304 305 313 315 319 326 329 330 333 333 333 336 337 338 338 339 341 341 343 342 342 343 344 345 347 348 349 349 349 350 351 352 351 352 352 354 356 356 356 356 357 358 357 357 355 354 352 350 350 349 350 349 349 350 352 350 356 364 365 365 367 368 369 369 368 370 369 369 368 367 368 369 366 367 368 367 366 366 364 360 359 353 346 346
297 299 305 305 306 307 307 307 306 303 302 307 309 303 303 311 313 318 324 327 328 331 331 332 334 336 336 337 338 339 340 341 343 344 344 344 345 346 348 348 349 349 351 353 353 352 353 353 355 356 355 356 356 357 358 357 356 356 355 353 352 352 349 352 355 354 354 357 358 361 364 366 367 366 366 368 368 369 369 370 369 368 368 368 369 368 367 365 363 365 367 365 362 362 355 348 346
297 306 306 306 305 306 306 307 306 305 308 308 308 306 301 303 309 318 324 325 326 328 330 331 332 335 335 337 338 339 340 341 341 342 344 345 346 346 346 349 349 349 351 352 352 353 353 354 355 355 356 356 357 358 357 358 355 355 355 355 355 354 352 354 357 358 360 363 360 361 363 364 368 367 367 369 369 369 369 369 370 369 367 367 367 366 363 364 366 368 368 367 366 363 359 352 347
301 307 308 306 307 307 308 307 306 306 304 301 306 308 301 302 309 315 319 320 324 326 328 330 332 334 335 336 337 339 340 341 342 341 343 344 345 346 348 348 350 351 351 351 352 353 354 355 355 356 356 356 357 358 357 357 357 357 356 355 355 356 356 356 358 359 359 362 360 362 364 364 367 369 368 368 369 368 368 368 369 369 367 368 368 365 365 364 367 367 368 366 365 364 362 359 355
304 309 309 309 310 309 309 307 306 306 302 299 304 306 300 301 308 309 317 318 320 325 328 330 333 334 335 335 337 338 340 341 342 343 344 344 346 347 348 350 350 350 351 353 353 354 354 355 355 355 355 356 357 358 357 358 358 358 356 356 355 355 357 357 357 357 358 361 359 361 363 364 364 367 368 369 370 369 369 369 367 367 367 365 365 364 365 366 368 368 368 367 367 364 365 362 358
309 309 308 307 307 307 308 308 307 304 297 300 305 306 303 298 306 308 310 313 319 323 327 331 334 334 335 337 337 338 338 340 341 342 343 345 346 347 349 348 350 351 351 352 352 353 354 354 355 355 356 356 358 357 357 357 357 357 357 357 356 356 357 357 355 357 358 359 358 359 361 363 365 365 365 368 368 368 368 369 366 366 367 368 368 367 366 364 364 367 367 369 368 366 364 363 362
308 304 304 304 303 305 304 303 305 297 295 303 306 305 304 296 303 310 314 319 320 322 323 328 330 333 334 336 337 338 339 339 340 341 342 343 345 346 347 347 349 350 351 351 351 352 353 354 355 355 356 357 358 357 357 356 356 357 358 358 357 357 358 356 355 355 357 357 357 358 361 362 364 365 367 365 366 366 368 368 368 367 367 368 367 368 366 366 365 365 367 367 367 367 367 365 363
305 304 303 298 297 297 294 298 293 294 295 303 306 305 301 300 306 311 313 314 317 321 321 326 329 332 334 336 337 338 339 339 340 341 341 342 343 344 345 347 349 350 350 351 351 351 353 354 355 355 355 357 358 358 357 357 357 357 357 357 358 359 358 358 357 357 358 357 358 359 361 360 362 363 364 364 365 367 368 368 368 367 368 368 369 369 369 369 369 367 367 367 366 366 365 365 362
303 300 300 296 293 292 289 293 296 296 300 303 303 306 300 305 308 312 311 314 316 321 324 325 329 332 334 336 338 337 338 339 340 340 341 341 343 344 345 346 348 349 350 350 351 352 353 353 355 355 356 357 359 358 358 357 357 358 359 358 358 358 358 358 358 357 358 359 360 359 359 358 361 361 362 365 365 367 367 369 369 369 370 370 370 371 370 370 370 367 368 367 366 367 367 366 365
304 305 302 299 298 293 289 293 290 292 296 300 304 299 298 299 305 313 314 316 317 319 321 327 330 332 336 337 338 338 338 339 340 340 340 341 342 344 344 346 347 348 349 349 351 352 354 354 355 355 356 358 358 358 358 357 357 358 359 359 358 359 357 357 357 358 359 359 359 359 361 360 360 363 363 367 369 368 369 370 369 369 369 370 370 370 369 370 370 368 368 369 368 367 367 366 365
307 308 307 301 299 304 295 298 296 296 295 296 299 299 306 305 313 312 315 317 317 318 319 323 327 330 332 333 335 336 337 338 339 340 340 342 343 344 344 346 347 347 349 349 350 352 354 354 356 356 357 358 358 359 358 358 358 359 360 359 358 359 358 358 358 360 360 360 360 360 362 363 363 364 367 368 367 368 368 368 369 368 370 369 370 370 370 368 368 366 365 366 366 367 366 366 366
303 305 300 303 309 305 299 300 302 299 297 294 302 301 303 308 310 312 312 312 314 316 317 319 321 326 331 330 332 335 337 338 338 339 340 342 342 344 344 345 346 347 348 348 351 354 354 355 355 356 357 358 358 359 359 359 359 359 359 359 358 358 357 356 355 357 356 359 361 360 360 361 364 365 365 366 366 368 368 368 368 367 369 369 369 370 369 370 370 367 365 366 366 366 366 366 366
306 299 303 310 311 308 302 293 298 295 291 296 298 296 299 300 298 312 312 310 311 314 315 316 320 326 327 328 332 334 336 338 339 340 342 342 343 343 343 344 345 346 348 349 353 354 355 355 355 355 356 357 357 358 358 359 360 359 359 359 359 358 357 356 356 356 357 359 360 360 360 361 361 362 363 363 365 366 367 367 367 367 368 368 368 368 369 369 369 366 366 366 367 369 367 367 366
306 304 312 302 297 297 302 299 291 291 290 293 296 298 298 301 302 307 309 310 311 314 316 316 318 323 325 328 331 335 337 337 338 339 341 341 342 342 343 343 345 347 349 350 352 352 354 355 355 355 355 356 357 357 358 359 360 359 359 359 359 359 358 357 357 359 359 358 356 358 358 359 360 362 364 364 365 363 365 366 367 366 367 367 368 368 369 369 369 365 364 363 366 368 365 365 366
309 311 307 309 306 301 298 299 300 299 293 293 293 297 295 303 304 307 308 312 313 314 315 315 317 322 325 327 329 333 335 336 338 339 340 340 342 342 342 343 343 345 347 349 349 350 351 352 354 354 356 357 358 357 358 358 359 359 359 360 360 361 360 359 359 359 358 357 357 357 358 357 359 360 361 363 363 362 363 363 363 363 363 365 366 366 367 368 367 365 364 363 365 366 365 365 365
303 303 303 305 304 308 306 305 300 297 295 294 294 292 297 304 309 308 309 313 316 316 317 320 319 322 325 328 330 332 335 336 338 338 340 340 341 342 343 344 344 345 347 348 348 349 350 351 352 353 354 355 355 356 357 359 359 359 360 360 359 360 359 359 359 359 358 358 358 359 358 359 361 359 360 360 361 362 363 363 362 363 362 364 366 366 367 367 366 364 363 364 365 364 363 364 366
298 299 302 304 302 298 296 295 304 301 297 293 294 292 301 306 312 311 310 314 316 317 319 320 321 320 325 328 331 334 335 337 338 338 339 340 342 342 343 343 344 344 345 345 347 348 349 350 351 352 353 353 354 355 357 358 359 359 359 359 359 359 359 359 358 358 358 358 358 358 359 360 359 360 360 359 361 361 362 362 362 363 364 365 367 368 366 367 366 364 364 362 362 362 362 362 363
Wind_Speed
11 8 7 7 6 4 3 1 2 2 1 2 3 3 1 2 3 4 5 6 7 4 5 11 13 12 6 5 5 5 5 11 2 5 3 3 9 14 12 12 12 11 13 10 10 9 10 9 11 13 13 13 13 14 14 15 15 15 15 14 15 14 15 15 14 14 14 13 13 14 12 10 11 13 9 11 13 12 10 9 10 10 10 10 10 10 10 13 13 11 12 12 12 12 11 11 10
7 9 6 6 6 2 1 2 1 2 2 3 4 2 1 4 4 4 8 7 4 7 9 13 13 6 3 10 7 9 9 8 4 4 4 7 15 11 12 13 13 13 11 11 10 9 9 11 10 13 13 14 14 15 15 15 15 14 14 14 14 14 15 15 15 14 14 13 13 15 14 12 8 12 10 11 12 11 10 9 9 10 10 10 10 10 11 12 11 12 11 12 12 11 10 10 10
9 10 7 4 2 1 1 1 1 2 3 3 1 2 2 5 5 6 6 5 8 11 13 13 11 7 8 9 7 0 5 4 8 8 8 14 16 11 13 14 12 12 12 10 9 8 8 11 10 12 13 14 15 15 14 14 14 14 13 13 14 14 14 13 14 14 14 14 14 15 16 13 12 10 11 12 11 10 9 8 8 9 10 9 10 11 11 11 11 11 12 11 11 10 10 9 10
9 7 9 7 5 2 3 1 3 2 2 0 1 4 4 3 5 6 6 7 11 13 13 14 9 2 6 8 4 7 7 5 4 13 11 14 8 15 14 14 13 11 11 10 10 8 8 11 9 11 13 14 14 15 14 14 13 13 13 13 13 14 14 14 14 13 13 13 12 14 14 11 11 12 12 12 11 10 8 9 9 8 9 10 10 10 10 11 11 11 12 10 10 11 10 11 9
8 8 6 4 1 2 3 2 1 1 2 1 2 3 4 3 7 8 7 10 12 13 14 10 6 4 5 6 1 1 5 7 9 8 11 10 12 16 17 15 13 12 11 11 10 8 9 12 10 11 13 14 15 15 14 14 13 13 13 13 13 13 13 13 13 13 12 12 12 12 13 11 12 11 11 11 10 10 10 8 9 10 8 9 9 9 9 10 11 12 12 12 12 12 9 10 11
7 7 5 2 2 1 1 3 2 3 3 1 2 2 5 6 10 9 11 11 11 12 10 9 6 8 5 4 4 3 8 3 10 9 15 11 18 18 18 15 13 12 12 11 9 8 10 12 12 12 13 14 15 15 14 14 14 13 13 13 12 12 13 13 13 12 12 12 12 11 12 11 12 11 10 11 10 8 9 8 9 10 8 8 8 8 8 9 12 13 13 12 12 11 11 13 13
8 7 2 3 4 2 2 3 3 3 1 3 2 2 7 8 10 12 13 12 8 9 7 7 11 10 7 4 7 6 2 5 10 10 10 17 18 18 18 14 14 13 13 11 9 8 12 12 12 13 13 13 14 14 14 13 14 14 14 13 12 12 12 12 12 12 12 12 12 11 11 11 13 11 12 9 9 7 8 9 9 9 9 8 8 8 8 10 12 14 13 13 11 11 12 13 12
5 3 4 4 1 3 2 4 4 2 2 2 2 3 8 10 11 12 14 14 13 11 7 10 9 5 5 1 3 4 4 4 7 14 14 18 19 18 17 15 15 14 13 11 10 8 12 12 12 13 13 13 14 14 13 13 13 14 13 13 13 12 12 12 11 12 12 12 11 11 10 10 10 12 14 11 8 10 9 8 9 9 9 9 9 8 8 10 12 14 14 12 12 12 12 12 12
6 2 1 3 1 1 3 3 3 1 4 2 2 5 9 10 11 12 13 9 12 9 11 12 6 6 6 7 6 4 5 9 13 15 18 19 19 18 14 15 15 14 14 12 10 9 10 12 12 13 13 13 13 14 13 13 14 14 13 13 12 12 12 11 11 11 12 11 11 10 11 10 10 9 10 12 8 9 10 9 9 9 9 9 9 10 8 10 11 14 13 13 12 12 12 10 10
4 2 2 2 1 2 3 1 3 2 1 2 5 9 10 10 11 10 12 12 11 13 10 8 3 6 10 8 7 4 6 12 15 17 17 19 18 17 17 16 15 16 14 12 10 10 8 12 12 12 13 13 12 13 13 13 14 14 13 11 12 12 12 11 11 12 11 11 11 11 10 10 10 9 9 9 10 9 9 9 8 9 9 9 9 9 9 10 11 13 15 11 10 12 12 10 9
4 3 2 2 1 2 2 1 1 2 3 3 6 8 8 10 11 10 8 10 10 12 10 9 7 11 8 6 4 4 10 14 17 19 19 19 17 16 16 15 15 15 14 13 11 9 9 10 13 12 12 13 13 13 13 13 13 14 13 12 12 12 12 11 10 10 10 11 11 10 9 9 9 8 8 9 9 9 9 8 8 8 9 9 10 8 8 9 10 11 14 12 11 12 11 10 9
4 3 3 3 3 3 1 3 3 1 3 6 7 7 6 10 10 10 9 11 11 10 10 12 7 11 9 7 4 8 13 15 16 18 18 18 15 15 15 13 15 14 14 12 11 10 9 10 10 12 13 13 13 13 13 13 13 13 13 12 12 11 11 11 10 10 10 10 9 9 8 8 8 8 8 9 8 7 8 8 7 7 7 9 10 8 9 8 10 10 12 13 12 11 10 10 11
3 2 2 1 2 3 3 5 1 2 4 6 9 7 7 10 10 10 10 9 10 12 9 6 14 4 5 6 6 10 13 16 16 18 18 16 15 12 14 14 14 14 13 12 10 10 10 10 9 10 11 13 13 13 13 13 12 12 12 11 12 11 10 10 9 9 9 9 9 8 8 7 7 7 7 6 6 7 7 7 8 8 7 8 8 9 9 8 9 10 10 13 11 12 11 9 11
3 1 1 3 1 5 5 2 0 4 4 6 5 7 9 8 7 10 9 11 10 9 7 11 10 9 10 8 9 10 11 16 18 18 15 15 13 12 15 14 14 13 12 11 10 10 9 9 9 9 10 10 10 12 12 11 11 11 11 10 11 10 10 10 10 9 8 8 9 9 8 8 8 7 6 6 6 9 9 9 8 8 9 8 10 8 10 9 9 9 9 11 10 12 13 11 10
4 2 1 2 4 3 3 3 3 4 4 8 7 11 8 2 5 9 9 10 8 6 10 7 6 8 6 10 8 12 15 18 20 18 17 15 15 14 15 13 14 13 12 11 10 9 9 9 9 9 9 8 9 7 8 9 11 10 10 11 10 11 10 10 10 9 9 9 10 10 10 10 9 8 9 8 9 9 9 9 7 8 9 9 9 9 9 10 9 9 9 8 8 9 12 14 12
3 2 1 2 3 3 2 4 2 3 4 7 9 9 8 4 6 9 5 4 7 7 11 6 6 1 7 12 13 16 19 20 19 18 16 17 15 14 14 14 12 12 11 11 10 8 8 9 8 8 8 8 8 7 7 8 10 11 10 10 11 11 11 10 10 9 9 10 11 11 10 8 8 7 9 8 8 9 9 8 9 8 9 8 8 9 9 9 9 9 9 8 7 8 9 10 11
4 2 2 3 4 4 2 3 4 1 5 7 11 12 10 8 6 3 4 8 12 10 6 4 6 1 7 6 16 20 21 21 20 20 18 15 14 13 12 11 11 11 9 10 9 8 9 9 9 8 8 9 8 8 7 7 9 11 10 11 11 10 10 10 10 9 9 10 10 9 9 6 6 5 6 7 7 7 8 8 8 8 8 8 8 8 9 9 8 8 8 7 8 9 7 8 8
4 4 3 6 4 4 1 2 1 4 6 10 12 13 11 10 9 7 8 8 9 10 5 7 7 7 9 13 19 21 22 22 21 22 19 16 14 14 13 12 12 11 11 10 10 9 8 8 9 8 7 9 8 6 6 5 7 8 8 8 8 8 9 9 7 6 7 7 8 6 5 5 4 5 6 6 6 6 7 7 7 8 8 8 8 8 8 8 8 8 7 7 8 7 5 3 5
6 4 5 5 4 0 1 2 3 2 1 8 10 11 11 11 13 10 8 10 12 9 7 8 10 11 14 17 21 22 23 22 23 22 21 21 17 18 15 14 13 12 11 10 9 10 8 8 9 9 8 8 8 7 6 6 7 6 7 6 6 7 7 6 6 6 5 6 5 4 4 4 5 4 5 5 6 9 7 7 7 8 8 8 8 7 7 7 7 6 6 6 7 5 3 3 3
8 5 6 7 2 3 5 7 6 5 2 9 10 10 9 10 9 10 8 12 12 11 10 9 11 13 15 19 22 22 22 22 22 21 21 20 18 19 17 17 14 13 13 11 10 9 9 8 9 8 8 9 8 6 6 5 5 6 5 5 5 5 5 5 5 4 4 4 4 3 3 4 4 4 6 6 5 4 5 7 8 8 8 9 7 5 5 7 5 6 7 5 3 2 3 2 3
6 7 7 1 1 4 2 2 4 4 6 9 10 9 8 11 8 10 11 11 11 10 14 16 16 17 19 21 23 22 23 22 22 21 20 19 18 15 15 15 15 13 11 10 9 10 11 10 8 8 8 8 7 6 6 6 5 5 5 5 4 4 4 4 4 4 4 3 3 3 3 3 3 3 3 3 3 3 4 4 4 4 4 4 4 4 5 4 3 3 3 2 3 2 3 3 3
2 10 7 5 2 3 2 3 8 4 1 6 9 12 9 9 7 11 15 10 9 13 14 12 17 20 22 23 23 23 24 23 23 22 22 22 22 19 17 14 14 13 11 11 11 11 11 11 10 8 8 8 7 6 6 6 6 5 5 5 4 4 4 4 3 3 3 3 2 2 2 3 2 3 3 3 3 3 3 3 3 3 3 3 3 5 3 2 3 3 3 3 2 2 2 2 2
7 8 11 9 7 8 2 4 6 5 2 6 8 8 6 12 8 11 14 11 4 3 13 14 18 20 22 23 23 23 24 24 23 22 21 20 20 18 17 15 15 14 12 12 11 11 11 11 11 10 9 8 8 6 6 5 5 5 5 5 5 4 4 4 3 3 3 3 2 2 2 2 2 2 2 2 3 3 3 2 2 2 2 2 3 4 2 3 2 1 2 2 2 1 1 2 1
10 8 3 5 4 10 9 9 7 4 4 6 7 6 9 12 9 10 12 6 5 10 15 17 17 18 20 22 24 25 24 24 23 21 20 19 20 19 18 17 15 13 12 13 12 11 11 12 12 11 10 9 8 7 7 6 6 5 5 5 4 4 4 3 3 2 2 2 1 1 0 1 1 2 2 2 2 2 2 2 2 1 1 2 2 1 2 1 1 1 1 2 1 2 2 1 1
12 11 9 9 9 9 9 8 6 6 5 4 7 9 11 12 5 8 13 7 9 13 16 18 18 19 19 21 21 22 22 21 21 20 17 14 16 16 15 13 14 14 15 14 13 12 13 12 12 12 11 10 9 8 8 7 6 6 6 5 4 4 3 3 2 2 2 1 1 1 1 1 1 1 1 2 1 1 1 1 1 1 1 1 1 2 2 0 1 1 1 1 1 1 1 1 0
14 14 7 5 6 6 6 9 9 7 3 5 8 10 9 11 3 7 9 8 11 15 17 19 19 19 19 20 21 21 22 23 22 21 20 17 17 18 17 15 15 15 15 15 13 12 13 13 13 13 12 11 9 9 7 7 7 7 6 6 5 5 3 2 2 2 2 2 2 2 1 1 1 0 1 1 0 1 1 0 0 0 1 0 0 3 0 0 0 1 1 2 1 1 1 1 1
3 12 14 13 14 13 11 11 11 9 6 6 8 9 10 9 8 6 10 11 14 16 17 18 19 20 18 18 18 19 21 22 23 19 18 17 17 16 16 16 16 15 15 16 13 12 12 13 13 12 12 11 10 9 8 8 7 7 7 6 5 5 4 4 3 2 2 2 2 1 2 2 2 1 0 0 0 0 0 1 1 1 1 0 1 2 2 1 0 1 1 1 1 1 0 1 1
4 1 4 9 10 11 12 11 12 7 6 10 11 10 8 10 11 10 10 14 16 17 17 18 18 18 17 19 18 17 17 17 17 19 21 20 17 16 17 15 16 15 16 16 13 12 13 14 13 12 12 11 11 10 9 9 8 7 7 6 6 5 5 5 4 3 3 2 2 2 2 2 2 1 1 1 1 1 1 1 1 1 1 1 1 2 2 1 0 1 1 1 1 1 1 0 0
9 6 7 5 8 11 10 10 10 5 6 7 9 5 7 10 14 14 12 15 17 17 17 18 17 17 17 17 16 15 16 16 16 17 19 17 16 15 18 16 15 15 12 15 14 14 15 14 13 12 11 12 12 11 10 9 8 7 7 7 5 6 6 5 4 4 3 3 2 3 2 3 2 2 1 2 2 2 2 2 2 2 2 2 2 5 3 2 2 2 1 1 1 1 1 1 1
5 8 8 10 8 10 8 9 11 8 6 7 8 5 6 14 16 9 15 15 16 16 16 17 14 15 15 17 15 16 15 17 17 17 16 15 16 16 17 17 16 14 12 12 15 15 12 11 10 10 12 12 12 10 9 9 9 7 7 6 6 6 5 5 4 4 3 3 3 3 3 3 3 2 2 2 2 2 2 2 2 2 2 2 1 3 2 1 2 3 3 2 1 1 1 0 0
8 7 4 8 5 6 3 3 7 10 6 10 11 8 6 9 13 12 15 18 18 17 16 17 15 15 15 16 15 16 17 17 19 18 18 17 15 14 16 16 16 15 11 13 16 16 15 12 11 10 12 12 12 10 11 10 8 8 7 6 6 6 5 4 4 4 3 3 3 3 4 3 3 3 2 2 2 2 3 2 3 2 2 2 1 2 2 1 1 2 2 2 1 1 1 0 1
5 5 8 7 8 6 3 1 6 8 5 12 11 8 10 6 9 15 16 17 19 16 17 17 16 16 16 16 16 16 17 17 18 18 18 18 16 14 16 17 17 16 15 15 15 15 16 14 13 11 13 13 12 11 10 9 8 8 6 6 5 7 4 5 4 4 4 3 3 3 4 4 4 3 3 3 3 3 3 3 3 2 2 2 1 2 2 1 1 2 2 2 2 1 1 1 1
4 9 5 7 7 8 6 7 9 10 5 11 13 6 2 5 8 15 17 19 19 16 17 17 18 18 17 16 15 16 15 17 17 18 18 17 16 14 15 16 16 17 15 15 15 15 15 16 14 13 14 14 12 11 11 9 9 7 7 6 7 6 5 5 4 4 4 4 4 4 4 4 4 4 4 3 3 3 3 3 3 2 2 1 1 1 2 2 1 2 2 1 3 2 2 1 0
8 8 8 4 8 7 8 2 5 9 9 9 14 11 11 2 7 14 17 19 19 16 17 18 17 16 17 15 16 16 17 17 19 19 19 18 15 17 15 15 16 16 15 16 16 16 16 15 14 13 11 13 11 11 10 10 8 6 6 6 6 6 6 5 4 4 4 4 4 4 4 4 4 4 4 4 3 3 3 3 2 1 1 1 0 1 1 2 2 4 2 1 2 2 2 2 1
9 9 9 7 6 8 6 5 5 6 10 10 13 14 13 5 5 13 17 19 19 18 17 18 18 17 16 15 16 18 17 18 20 19 20 19 18 17 15 15 16 16 13 16 15 14 13 13 12 13 12 12 12 11 11 10 7 6 5 6 6 6 5 5 4 4 5 5 5 5 4 4 4 5 4 4 4 3 3 3 2 2 2 1 1 1 2 3 3 2 5 1 0 2 3 3 2
6 7 8 6 8 9 9 6 2 1 5 9 12 12 12 11 7 10 14 18 19 18 15 14 15 15 16 15 16 16 17 19 17 19 20 18 16 17 15 15 15 15 14 14 15 14 14 13 12 12 13 12 11 11 11 9 7 7 8 6 6 6 6 5 5 5 5 5 5 5 4 4 4 4 4 4 4 3 3 3 2 2 2 2 2 3 3 2 2 6 5 0 0 1 2 1 1
2 7 7 9 10 8 4 4 5 2 6 9 10 12 14 12 11 12 15 16 15 14 15 14 15 15 16 16 17 18 19 19 17 19 20 20 19 17 16 15 15 16 15 16 15 16 15 14 14 16 14 13 13 11 11 9 9 8 7 8 8 7 7 6 6 6 6 5 5 5 4 4 5 5 5 4 4 4 3 2 3 3 3 3 3 3 2 2 2 1 0 0 1 0 1 1 1
4 2 5 7 8 10 4 2 1 3 6 5 7 11 14 14 11 12 12 14 17 17 16 16 17 17 16 19 19 19 16 11 14 15 18 19 17 18 17 14 16 18 16 16 17 16 16 16 16 14 13 15 14 12 11 10 10 9 9 9 8 7 7 7 7 6 6 5 5 5 5 5 5 5 5 5 5 5 4 3 3 3 3 2 2 2 1 1 1 1 1 1 0 1 0 1 2
11 7 4 4 7 4 9 8 7 7 4 8 5 9 10 12 12 10 13 16 16 18 20 20 20 19 17 18 18 16 15 16 17 18 19 19 20 20 17 16 16 18 18 18 17 16 16 15 14 13 13 13 14 12 11 11 10 9 9 7 8 6 6 6 6 5 6 6 6 6 6 5 6 5 5 5 5 5 5 4 3 3 3 2 2 2 2 2 1 1 2 2 1 1 1 1 2
12 11 8 9 2 4 9 3 2 1 5 5 3 8 9 8 9 12 14 17 15 17 19 19 20 21 21 21 20 19 20 18 20 20 21 20 20 19 18 17 17 16 16 16 17 18 15 14 14 14 13 14 12 12 12 11 10 9 8 6 6 6 4 5 5 4 5 6 7 6 6 6 6 6 6 6 5 5 5 5 3 3 3 3 3 2 2 2 2 2 2 2 1 2 2 2 3
13 14 12 8 6 6 5 1 7 7 6 8 7 8 10 7 8 8 12 15 11 11 12 12 12 13 13 11 12 16 20 21 20 21 21 21 21 21 20 18 17 17 17 17 18 17 13 17 16 15 13 13 12 12 13 10 9 8 7 5 5 5 4 5 5 6 7 7 7 7 6 6 6 6 6 6 5 5 5 5 4 4 3 3 3 3 3 3 2 2 2 3 3 3 2 1 3
11 16 16 12 6 7 7 8 8 5 4 4 6 7 10 8 11 12 10 11 14 12 14 16 15 14 14 17 19 18 17 17 19 22 23 22 21 20 20 20 19 18 18 17 17 17 16 15 16 15 12 12 13 14 14 12 10 10 10 9 9 8 7 7 9 9 9 9 10 8 7 7 7 6 6 6 6 5 5 5 5 5 5 4 3 3 2 2 3 3 3 4 3 3 2 2 2
10 11 15 14 11 10 10 9 5 6 7 4 2 9 9 2 7 10 10 13 17 13 16 17 16 15 16 16 16 17 19 17 17 16 18 20 20 20 21 21 21 20 18 16 16 17 17 15 16 16 14 12 12 13 15 14 12 11 13 12 11 10 10 9 8 8 8 6 6 7 5 6 6 7 7 7 6 6 5 5 5 5 5 5 4 3 4 5 4 3 3 4 3 1 2 3 4
12 4 12 12 13 12 12 10 9 8 7 11 10 5 7 8 8 7 10 14 16 15 17 17 15 17 19 18 18 17 18 19 18 20 21 21 22 23 23 22 21 20 18 17 17 16 18 17 16 16 13 13 12 12 14 13 12 13 13 12 10 10 10 8 9 8 6 5 6 7 5 5 6 6 6 6 7 6 6 6 6 5 5 5 4 5 5 5 3 2 3 3 3 2 3 3 3
6 8 9 13 13 13 12 10 9 8 6 10 8 4 6 9 4 3 9 12 13 15 18 17 17 18 19 19 19 19 20 20 20 19 21 21 22 23 22 22 22 20 18 18 17 16 16 15 15 15 15 14 13 15 14 15 13 13 13 11 11 9 9 8 7 7 6 6 7 6 6 6 6 6 7 6 7 7 7 6 6 6 6 6 5 5 6 5 5 4 4 4 4 4 3 3 2
10 7 9 8 10 11 12 10 10 9 8 14 11 8 9 11 8 6 6 11 13 15 17 17 18 19 19 19 20 19 18 17 19 20 20 21 22 22 22 20 20 20 18 17 17 16 16 15 16 17 17 14 13 15 15 16 16 13 12 12 13 10 9 7 7 7 7 7 8 7 7 6 6 6 6 6 6 7 7 7 6 7 7 6 6 6 6 5 5 5 5 5 5 5 4 4 4
6 9 9 10 12 11 8 9 8 6 14 15 15 10 10 11 11 11 9 8 10 12 12 13 15 17 17 17 18 16 17 18 18 19 20 20 20 20 19 20 21 20 18 18 18 17 16 16 17 18 18 14 14 16 16 17 16 14 13 14 14 13 12 10 9 8 8 8 8 8 8 7 6 6 6 6 7 7 7 7 7 7 6 6 6 6 6 6 6 6 6 6 6 6 4 4 4
11 10 9 7 5 4 9 7 6 11 15 9 14 13 11 13 10 9 10 6 11 12 12 13 16 18 17 16 17 18 19 18 18 17 18 19 19 19 19 20 20 20 19 19 18 17 17 17 17 18 17 17 16 16 16 16 15 15 14 15 15 13 12 10 12 11 11 11 11 9 8 7 7 7 7 7 7 7 6 6 7 6 6 6 6 6 6 6 6 5 5 5 5 6 5 5 5
13 11 11 10 6 8 10 9 13 16 12 7 10 10 10 20 16 2 6 10 12 12 11 12 16 17 18 18 19 18 18 18 17 18 18 18 19 20 21 21 20 20 19 20 20 18 17 17 19 19 18 18 16 17 17 17 16 15 15 15 14 12 12 12 12 11 11 11 10 9 9 8 8 8 8 8 7 8 6 6 6 6 6 6 6 6 6 6 6 5 6 6 6 6 5 6 5
15 14 13 13 11 11 11 12 8 9 8 4 2 8 15 8 9 13 17 15 12 10 11 12 14 15 17 17 17 17 17 18 18 18 19 19 18 19 21 21 21 19 21 20 20 19 17 16 18 19 19 18 17 17 17 18 18 16 15 14 13 12 12 12 11 11 11 10 9 10 10 10 9 10 9 8 8 8 7 7 7 7 7 7 7 7 6 6 6 6 6 6 7 6 6 6 6
14 13 14 13 11 10 11 9 12 11 6 8 12 5 8 8 7 7 14 16 15 13 13 11 11 13 14 15 15 18 17 18 17 17 19 20 19 21 20 20 19 19 22 21 19 19 17 17 18 19 19 18 18 18 17 18 17 16 15 14 13 11 12 11 11 10 10 10 10 10 9 9 9 9 9 7 7 7 7 7 7 8 7 7 7 7 6 6 6 6 6 7 6 5 6 6 6
13 14 12 14 16 7 10 3 8 7 7 7 10 11 2 6 4 5 5 6 10 13 17 15 14 12 11 10 13 16 17 18 18 19 19 20 19 19 18 18 19 19 22 21 21 19 18 17 18 20 19 19 19 18 17 17 17 14 16 15 14 13 11 11 9 9 9 10 10 10 10 10 9 8 7 7 8 8 7 8 7 8 7 8 8 8 7 6 7 7 7 7 7 5 7 8 7
11 13 16 14 7 10 10 4 1 2 6 12 6 9 10 5 13 10 8 8 9 11 15 16 16 14 12 13 14 16 17 18 19 20 19 20 19 20 20 20 19 19 20 21 21 20 20 18 18 20 19 18 19 19 18 17 16 16 17 16 15 14 14 14 13 14 14 11 10 10 9 10 9 8 7 7 8 8 8 8 8 8 8 8 8 8 8 7 7 7 7 7 7 6 7 8 7
7 13 13 8 9 11 9 10 5 10 12 5 9 17 10 9 12 12 17 10 10 10 13 14 15 12 13 14 14 15 17 19 22 22 21 21 21 23 22 20 22 22 22 22 20 20 18 18 20 20 19 20 19 18 18 17 17 16 15 16 16 15 15 15 14 13 12 11 10 9 9 8 10 9 8 7 8 9 8 8 8 8 8 8 9 8 8 8 8 7 7 8 7 6 6 7 7
11 9 11 12 11 14 13 7 14 12 13 8 7 11 14 12 12 4 13 18 16 10 10 12 12 12 14 14 16 16 17 17 17 19 16 17 18 20 21 23 24 22 20 21 20 20 19 19 20 21 22 21 20 18 17 15 16 13 13 15 17 15 14 14 13 12 12 12 13 12 12 11 10 9 8 8 8 9 9 9 8 8 8 8 8 8 8 8 8 7 8 8 7 7 7 7 7
6 3 12 12 5 11 12 14 5 5 10 7 9 12 13 10 12 11 8 11 15 14 10 12 12 14 15 14 15 15 15 16 17 18 19 20 22 23 24 24 24 24 23 20 22 20 23 22 20 20 19 18 19 19 18 17 17 15 14 14 15 14 14 14 14 13 13 13 14 13 13 12 11 10 9 10 9 10 10 10 10 10 9 9 9 9 9 8 8 8 8 8 7 7 7 7 7
14 11 10 8 9 1 10 8 13 10 9 9 6 10 9 8 6 10 13 10 10 11 10 10 11 13 16 15 14 14 16 16 17 18 19 21 22 23 23 23 22 21 19 19 21 22 22 20 21 22 22 21 21 20 18 16 15 16 15 16 16 15 16 14 14 14 13 13 13 12 12 11 9 10 10 10 11 10 10 10 10 10 10 9 9 8 8 8 8 9 9 9 8 8 9 8 7
4 3 6 6 12 11 14 15 11 13 9 6 8 13 5 1 5 9 11 9 9 12 12 11 12 13 13 13 15 14 14 16 18 19 20 20 21 22 21 19 18 19 20 23 22 20 22 23 22 22 21 20 21 20 18 16 15 15 17 17 17 16 15 14 15 14 14 13 13 12 11 10 11 11 10 11 11 10 10 10 11 11 10 10 9 9 9 8 8 9 10 8 9 9 9 10 9
Wind_Direction
157 143 132 145 149 143 151 233 206 159 226 263 288 215 152 215 143 141 128 138 144 148 117 121 128 137 148 182 140 62 30 156 15 178 86 79 138 131 140 141 141 141 142 144 143 148 152 140 131 129 127 121 121 120 116 115 115 111 111 113 115 117 115 114 114 116 117 118 118 114 109 110 116 109 119 121 110 110 110 106 104 108 105 101 99 96 97 86 92 98 104 106 107 109 110 101 99
139 123 126 141 156 157 169 214 315 157 176 260 235 229 128 164 185 176 159 164 147 152 145 137 141 128 85 129 112 114 52 36 12 74 86 127 136 133 141 141 146 144 142 144 146 145 143 132 131 130 128 129 124 117 114 113 112 112 113 113 113 116 115 117 117 116 119 119 120 117 110 108 111 116 120 116 107 105 106 107 111 110 107 105 103 100 89 96 100 98 98 102 106 105 98 98 101
148 145 138 125 95 305 69 14 236 199 229 215 208 201 123 171 188 166 164 149 129 136 145 137 123 110 122 122 139 247 126 54 100 109 112 143 135 152 145 143 143 140 141 145 145 145 145 132 130 130 131 127 122 116 115 114 114 115 115 115 115 113 111 110 114 118 120 121 119 117 120 127 127 116 111 106 100 102 108 111 116 114 114 110 103 98 96 96 97 98 100 103 104 101 96 96 92
152 151 152 158 144 312 149 149 252 245 245 314 176 152 187 173 153 134 135 129 135 142 144 143 137 22 153 155 98 86 95 125 128 136 134 157 145 149 146 141 142 141 142 145 145 145 142 134 133 133 133 128 122 117 118 117 117 117 117 115 114 114 113 117 117 113 109 107 105 106 110 117 111 110 108 107 111 117 122 119 115 113 113 108 101 96 100 100 98 95 96 98 90 86 86 85 83
152 154 161 180 142 200 192 208 274 284 257 248 56 135 171 175 133 131 125 137 141 146 153 139 101 70 56 83 73 308 128 104 136 149 142 146 138 147 147 142 144 144 145 146 144 145 140 132 135 135 133 131 124 124 122 121 120 120 118 115 115 114 112 112 110 106 105 105 105 103 108 107 107 107 108 112 117 118 116 115 117 95 87 88 91 97 98 98 99 95 90 89 93 96 93 85 73
138 153 187 259 213 353 225 236 205 228 259 297 262 125 152 134 133 129 132 138 144 149 151 146 138 151 131 39 4 105 132 141 156 152 151 145 148 147 145 145 144 147 145 145 146 147 143 140 139 137 134 131 126 126 126 126 126 125 122 117 115 115 113 110 108 107 107 105 104 103 105 112 109 103 101 99 101 106 111 115 106 113 106 103 97 95 94 95 94 93 91 82 79 85 82 71 73
151 147 193 260 263 202 265 295 282 281 20 209 235 148 153 136 135 134 136 136 150 146 156 140 120 117 107 120 90 74 11 109 154 152 159 145 145 146 147 145 143 142 145 148 148 146 142 142 141 139 135 132 128 126 127 129 129 124 119 117 118 116 112 110 110 110 110 108 105 105 106 108 115 115 105 104 117 115 114 117 110 110 109 109 103 99 94 94 93 92 90 85 82 80 87 91 94
170 174 183 228 233 200 274 316 293 275 90 291 51 156 152 146 146 145 147 156 160 160 161 140 149 102 81 157 139 78 75 153 126 138 137 145 146 146 149 145 144 144 147 149 148 144 140 146 143 140 135 135 131 127 128 129 122 118 116 117 118 116 113 110 111 111 111 109 108 106 107 106 108 117 123 129 142 125 104 102 112 109 103 103 99 95 98 95 95 99 99 103 98 96 93 100 112
168 281 126 257 243 258 276 275 302 276 277 279 97 120 145 153 155 151 152 161 151 159 155 161 161 151 127 115 95 96 86 120 122 134 141 146 147 148 150 150 147 147 149 150 145 146 147 144 144 142 139 135 133 130 129 127 121 113 111 118 120 121 117 114 115 114 111 111 110 111 109 108 105 102 108 116 113 108 112 111 99 102 107 102 101 96 101 97 97 101 103 101 106 99 96 95 96
168 279 178 273 6 267 303 249 247 78 195 66 142 144 153 155 152 159 152 154 162 158 154 147 129 111 135 111 120 137 125 132 127 136 144 148 148 148 150 150 148 149 149 147 145 147 146 144 143 145 140 133 136 128 125 122 117 114 119 123 125 121 118 118 117 117 116 110 110 110 110 108 105 105 102 104 107 105 103 104 107 103 101 98 98 103 102 101 102 105 103 108 107 101 102 102 101
175 194 265 276 228 278 248 46 261 163 129 127 129 145 147 153 153 150 151 149 155 158 142 141 113 128 128 107 75 78 131 137 142 147 149 150 150 148 149 150 149 151 149 148 146 145 148 148 145 147 137 136 130 127 126 123 121 122 124 128 125 121 120 119 118 113 111 110 109 107 103 102 102 102 101 102 99 96 99 99 100 102 100 103 97 97 98 102 105 108 111 109 101 95 98 106 111
200 191 178 272 273 272 291 302 314 128 117 154 143 152 157 153 151 148 143 144 162 154 160 177 146 134 111 127 120 138 138 148 146 147 150 150 151 147 148 149 151 152 150 146 144 147 149 146 150 144 141 137 133 132 129 125 125 127 126 125 122 120 117 117 115 110 107 107 107 104 102 97 94 93 94 94 98 103 100 100 102 104 106 100 103 112 109 108 102 103 108 111 100 99 85 86 97
254 216 195 270 268 248 301 278 310 124 150 174 156 163 159 160 168 155 152 141 158 155 165 172 133 160 121 127 123 137 150 150 148 150 150 152 151 143 149 149 151 150 148 147 145 145 149 151 149 148 141 139 138 133 131 131 131 130 129 129 125 122 122 120 116 115 112 110 104 101 95 92 89 92 90 90 97 101 103 102 101 100 100 103 108 105 105 103 103 101 103 107 110 104 109 99 100
223 243 323 290 251 276 274 290 95 182 164 142 155 150 170 175 175 158 150 148 160 165 132 136 144 108 96 111 142 152 151 152 150 151 151 149 147 146 151 150 150 149 148 148 148 149 153 153 149 147 146 148 142 137 133 132 130 132 131 131 129 125 124 124 122 121 116 113 108 101 99 98 94 96 103 110 117 99 104 103 95 101 105 103 106 117 113 110 100 100 97 98 108 106 103 99 88
232 213 246 276 292 290 218 236 157 187 125 160 151 161 166 158 167 165 168 141 144 104 120 140 143 174 175 161 163 165 156 155 153 152 151 147 149 149 148 150 149 149 149 149 149 154 156 153 150 149 150 146 140 143 135 136 135 136 132 130 128 130 129 123 120 117 119 111 101 99 98 91 90 91 100 96 92 89 89 97 96 95 91 92 89 89 91 94 100 98 97 102 104 108 115 119 126
233 271 251 286 262 271 156 224 207 192 124 169 158 162 154 128 174 168 161 141 120 130 149 154 202 298 133 182 161 156 153 152 151 150 148 147 147 149 149 151 151 151 150 151 153 158 158 156 153 153 153 151 148 144 138 140 143 146 144 140 138 132 127 123 118 115 111 107 99 97 96 101 95 95 87 88 84 85 78 79 96 84 82 84 85 87 91 94 95 97 101 105 104 92 104 113 126
221 259 254 223 259 221 116 219 178 100 110 152 157 167 166 156 164 134 117 127 137 153 163 133 168 36 168 165 141 145 150 151 151 149 148 148 152 154 154 154 153 154 155 156 159 161 161 158 159 155 158 156 150 144 142 144 148 153 154 146 138 130 124 121 119 119 115 112 111 113 119 103 105 100 103 96 97 84 76 78 81 85 86 85 83 82 83 88 93 98 102 106 105 112 114 102 94
199 212 231 246 248 247 271 266 241 7 168 157 172 178 163 147 165 145 140 143 134 142 135 114 77 82 115 122 136 145 148 153 154 154 156 154 159 159 159 158 158 160 163 161 163 164 164 163 163 160 159 160 154 148 145 147 149 155 141 139 135 132 128 128 129 121 118 113 114 123 104 104 94 87 83 79 81 87 87 79 87 91 87 82 76 71 73 79 85 91 98 100 103 102 104 105 99
202 206 227 247 193 156 283 3 336 306 35 167 174 180 180 162 159 156 157 150 146 143 131 128 101 102 114 134 142 149 153 156 159 160 159 161 164 163 162 162 164 160 165 165 163 164 168 166 166 166 166 164 158 153 148 148 151 147 137 134 130 133 129 129 126 119 116 111 109 105 105 94 85 81 74 70 75 71 73 74 81 81 81 78 72 72 73 74 80 88 94 96 91 101 104 75 64
215 229 227 236 227 268 273 282 281 266 243 168 173 182 191 152 167 161 171 157 163 164 147 146 138 139 142 146 149 151 158 159 162 162 163 164 165 164 163 165 165 166 165 169 165 162 171 171 168 168 169 169 165 159 157 153 153 150 145 143 138 136 132 127 121 119 115 110 109 101 98 89 86 84 80 79 93 90 90 77 71 74 74 76 70 74 77 75 67 72 66 85 106 77 67 70 61
175 221 227 252 307 263 106 9 338 282 231 184 176 165 183 166 168 172 153 151 188 189 177 166 160 152 150 154 153 156 161 162 165 166 165 164 165 166 166 167 167 164 166 163 164 167 172 173 171 171 171 174 172 165 161 160 153 158 151 147 142 141 137 134 131 130 126 120 112 108 103 97 99 95 84 80 74 81 78 78 82 77 75 78 54 64 44 39 30 44 75 45 46 60 52 49 34
197 227 239 248 287 274 335 31 39 34 217 178 169 171 190 162 174 186 168 178 191 200 184 167 150 149 152 157 159 160 164 166 168 169 170 169 168 168 167 165 163 163 161 168 170 165 172 175 175 171 173 179 176 169 168 156 161 160 155 150 152 152 147 145 145 143 142 143 137 118 106 118 117 101 87 74 79 72 74 76 70 73 77 73 53 63 58 26 27 11 24 13 21 32 30 25 31
234 235 249 253 264 285 322 296 352 348 127 176 180 181 140 173 188 194 189 203 73 143 159 151 149 155 157 156 158 165 168 170 172 172 170 170 171 170 166 166 166 167 168 171 171 170 171 177 178 175 176 180 181 172 170 167 170 160 163 163 164 161 158 159 162 155 147 150 147 131 155 130 118 105 89 75 67 63 73 65 68 70 61 64 62 88 77 35 7 343 353 3 351 343 15 23 1
235 252 254 261 260 257 280 293 311 291 222 210 190 167 184 185 202 192 206 195 98 130 142 141 145 151 152 158 166 166 170 173 174 175 174 173 171 169 167 168 168 167 169 170 172 172 174 178 180 179 180 181 182 177 177 177 173 170 170 166 182 157 172 174 167 160 148 170 166 145 153 130 107 98 86 85 70 68 67 72 81 79 84 66 64 77 107 89 12 320 316 303 314 345 348 345 356
228 245 257 270 269 271 277 287 296 297 251 226 185 193 203 197 201 180 211 185 133 134 136 140 144 151 159 162 166 167 169 172 174 174 175 175 175 169 168 167 169 168 172 172 174 174 177 177 180 185 181 183 185 184 183 183 180 179 175 182 181 173 195 186 165 165 184 181 164 200 228 171 142 104 96 91 82 81 80 75 110 95 54 79 96 58 53 122 28 315 324 282 289 324 312 294 318
224 238 252 272 275 286 289 293 287 287 284 195 193 212 204 197 190 224 207 184 141 137 141 145 149 154 163 168 167 168 170 174 173 175 177 175 175 174 175 176 172 175 174 172 174 177 177 179 183 186 187 185 184 186 188 186 186 185 184 187 182 190 194 189 182 201 198 204 189 207 224 246 208 133 114 78 152 103 61 61 212 55 56 53 358 94 320 77 262 324 320 332 302 256 276 18 296
185 232 246 264 271 283 282 277 280 282 266 201 216 213 210 189 195 223 185 164 141 144 148 153 156 163 165 169 170 170 171 174 176 172 175 176 176 179 177 177 177 175 172 177 177 178 177 180 184 186 186 187 185 190 190 190 189 192 189 187 188 194 187 193 203 216 217 214 212 198 229 232 242 225 157 319 295 315 294 308 326 7 278 33 23 71 131 140 31 297 307 280 304 357 347 53 276
263 287 274 262 267 267 270 268 268 269 266 208 217 232 211 191 200 228 162 155 153 150 154 160 164 165 168 169 171 173 175 173 171 173 176 178 182 182 180 180 178 175 177 180 180 179 180 184 183 185 187 187 189 192 190 191 193 195 192 193 194 195 191 200 205 211 216 223 223 215 225 230 241 257 275 289 291 300 286 291 313 302 331 352 19 32 27 352 203 268 306 322 326 292 297 149 198
242 271 282 273 284 279 259 251 257 215 250 197 207 229 212 189 221 213 159 156 161 155 160 165 168 167 168 170 171 174 178 175 175 179 183 182 179 182 183 182 179 176 179 179 179 180 183 184 184 186 186 188 193 194 191 192 193 195 196 197 195 196 198 202 206 207 209 211 211 222 230 236 241 257 251 272 292 291 295 300 294 308 313 348 10 41 21 8 332 339 347 321 269 269 248 162 191
233 244 261 290 280 272 260 220 237 218 225 183 162 228 220 214 221 181 155 161 162 158 165 169 168 169 169 172 175 177 179 179 184 186 183 182 182 183 182 181 181 178 174 177 180 184 182 183 185 185 189 190 194 196 192 193 194 193 197 197 197 198 203 202 205 203 205 208 213 215 229 232 240 243 251 256 276 283 287 285 291 299 312 338 7 97 67 353 330 316 327 311 288 277 274 189 245
218 226 230 255 272 241 115 201 191 209 174 173 181 248 249 219 209 177 161 163 165 171 171 172 171 171 172 175 177 179 182 185 188 187 185 185 184 183 182 179 179 178 171 176 182 183 182 183 184 186 189 191 192 197 195 195 190 192 194 197 198 202 201 206 204 201 203 211 213 215 220 227 232 236 236 249 257 276 275 273 275 280 316 324 317 102 125 110 270 275 267 277 302 265 271 264 275
197 171 224 222 230 245 201 136 183 196 147 188 189 251 257 244 196 168 166 171 171 175 174 175 174 174 174 176 179 181 185 187 191 190 187 186 185 184 184 182 182 182 178 177 181 182 185 185 186 188 187 192 193 197 197 194 187 191 192 195 203 206 208 207 208 209 208 209 218 223 215 222 228 230 230 224 246 252 265 273 279 293 303 299 336 86 103 108 350 298 292 298 304 301 293 230 251
206 221 204 211 208 240 275 224 214 223 147 186 196 246 297 244 184 166 170 173 179 177 177 178 177 177 176 178 181 183 182 187 192 194 191 188 188 186 186 184 184 186 182 177 178 182 187 188 188 191 188 191 194 196 198 194 198 186 189 191 203 204 212 209 210 212 215 217 220 227 212 213 224 224 223 219 235 246 252 260 262 265 273 289 21 30 50 63 359 334 310 313 301 312 303 288 277
206 207 228 196 211 213 232 56 218 214 198 184 206 239 251 341 160 167 173 177 180 183 180 181 179 179 181 180 181 181 185 185 192 194 192 190 188 188 186 186 186 186 184 182 181 182 187 186 191 193 188 190 193 197 194 199 198 188 189 195 195 205 214 221 215 213 219 220 219 225 213 212 220 224 218 216 229 244 254 260 268 241 249 265 201 142 112 83 351 292 300 269 281 303 307 319 353
199 185 212 213 232 235 236 196 112 198 198 206 204 230 246 228 161 173 180 182 183 189 183 182 181 181 180 182 184 185 186 188 193 191 189 189 188 188 187 185 187 186 187 186 183 182 184 187 188 190 190 190 192 196 197 201 184 191 201 197 197 206 214 221 223 220 221 221 225 220 210 214 221 220 217 211 227 235 238 242 248 215 221 211 214 196 154 149 194 24 291 189 254 360 339 349 14
205 187 210 222 211 212 225 235 257 161 177 217 212 225 239 229 198 186 183 185 188 194 184 179 183 182 182 184 186 187 190 194 191 188 189 187 188 186 187 185 186 187 187 185 184 183 186 186 188 192 196 190 190 194 197 197 189 195 201 199 206 208 211 211 217 227 226 227 224 220 212 217 218 219 213 210 218 226 239 238 227 211 212 210 210 229 140 111 208 217 224 321 101 59 38 6 110
101 191 218 227 233 245 260 245 276 258 258 232 225 230 243 239 216 192 189 188 197 189 181 182 184 184 187 189 190 191 192 194 188 188 187 188 188 186 187 185 186 186 187 186 184 186 186 187 189 197 194 192 193 190 193 192 190 193 201 205 207 203 205 205 212 219 225 228 227 226 217 221 222 222 220 207 210 210 224 216 206 210 210 214 220 235 240 219 191 266 136 162 289 287 85 76 116
260 217 211 223 228 235 221 280 358 298 259 242 229 238 241 241 228 203 186 185 195 193 188 187 187 189 190 191 193 194 192 184 183 188 191 189 189 187 186 186 185 186 188 186 188 189 190 189 192 194 193 197 197 189 188 191 192 192 189 199 203 203 196 201 209 213 220 222 218 222 226 228 224 222 220 206 206 205 207 201 201 206 201 210 221 234 219 219 188 215 172 198 85 335 38 179 119
238 239 227 258 232 277 290 271 263 269 261 260 251 253 252 244 235 203 188 195 203 196 190 190 188 190 192 194 195 188 182 186 187 190 189 192 191 189 188 189 191 190 187 189 190 190 190 192 194 190 191 192 197 188 184 189 191 191 191 192 197 201 207 208 212 208 208 222 220 220 223 223 220 224 221 209 202 203 209 204 209 207 209 201 207 215 219 213 219 218 212 261 221 115 99 132 148
228 228 231 222 112 190 218 177 69 243 231 270 251 259 261 256 229 207 199 204 206 204 200 196 190 188 191 192 188 186 186 184 188 189 190 191 192 191 191 191 192 191 189 191 191 191 190 192 192 190 189 192 189 189 191 191 187 182 185 189 189 201 197 194 204 209 214 224 229 220 218 219 217 226 220 214 206 202 199 202 204 207 207 207 221 231 220 231 212 208 221 238 248 254 218 163 163
222 230 231 230 218 228 267 344 327 312 253 251 263 268 266 238 225 213 212 210 211 209 209 211 207 207 199 194 192 192 189 186 187 189 191 192 192 194 192 190 189 191 192 192 191 191 193 193 192 190 190 191 191 190 189 185 176 175 177 180 179 190 203 192 198 214 215 218 225 221 219 210 215 222 219 214 214 203 196 194 198 203 203 204 214 229 230 236 228 244 234 237 234 264 254 212 165
224 225 228 233 233 243 255 276 311 297 257 184 222 260 256 226 223 219 202 194 212 203 203 207 202 193 189 195 197 195 198 195 190 189 190 192 192 191 192 192 192 193 194 193 192 192 192 193 191 189 191 192 193 190 185 185 185 179 178 186 189 190 198 195 199 204 203 207 217 221 209 208 210 214 212 214 212 206 195 194 197 205 209 206 214 240 242 221 218 238 227 246 242 208 272 261 211
224 225 208 225 240 245 255 266 274 262 248 96 331 245 252 130 231 214 191 196 208 200 209 212 202 196 198 200 196 196 195 195 197 196 192 191 193 193 193 194 194 194 195 192 191 192 192 191 190 188 190 192 191 188 185 194 189 191 189 192 192 190 192 201 202 205 208 203 204 205 199 199 203 211 212 206 208 204 200 194 198 208 214 217 218 226 232 237 232 229 223 238 249 201 194 243 248
231 159 177 203 221 232 241 251 250 267 302 294 271 254 274 270 239 211 205 205 206 202 211 212 203 201 206 204 201 197 196 195 192 193 194 193 191 193 194 194 194 196 191 189 190 191 190 189 185 188 191 192 190 185 184 187 187 193 195 196 197 199 199 196 191 196 197 190 193 209 208 205 199 209 212 201 203 202 200 199 198 206 212 218 211 224 238 242 234 221 226 243 242 224 216 238 251
226 174 168 194 209 223 233 242 251 255 288 271 245 173 255 250 238 116 200 215 215 211 214 209 205 206 206 205 204 201 198 196 194 193 194 193 195 195 194 194 194 193 192 191 189 188 188 187 185 187 191 191 189 185 184 188 189 191 192 193 198 202 201 199 183 187 192 188 196 198 202 205 199 202 211 208 200 202 199 200 196 201 208 212 214 229 233 233 229 228 214 221 228 222 212 219 234
205 150 182 206 201 212 224 235 243 244 237 250 242 204 247 259 238 208 185 217 209 213 219 214 207 209 205 205 205 202 197 197 200 199 196 196 196 197 196 193 190 193 192 190 187 186 187 186 187 188 193 191 188 186 187 190 192 190 193 196 199 197 194 191 186 184 187 181 195 197 199 202 205 203 205 210 204 203 203 200 200 203 209 213 214 229 228 227 225 227 234 240 241 240 218 213 221
124 171 184 194 205 216 213 234 232 243 244 239 241 213 222 268 240 216 189 210 199 209 216 214 214 215 212 209 204 200 198 198 198 198 199 199 198 197 192 192 192 190 192 188 186 187 186 187 187 189 192 191 190 187 188 191 192 194 196 196 198 198 191 187 183 188 185 183 196 199 200 202 202 205 205 204 210 206 205 204 207 205 208 204 207 217 223 227 227 226 230 237 245 248 239 227 219
178 190 192 168 181 179 205 203 193 233 245 224 226 217 199 243 237 209 206 183 203 207 213 205 209 212 211 206 203 202 200 197 195 196 198 196 195 196 193 196 193 191 189 188 188 188 188 187 187 189 189 189 191 189 190 193 193 196 198 196 198 199 191 190 191 193 189 191 196 198 197 196 202 205 207 210 208 207 200 205 209 208 201 201 206 214 224 226 232 227 226 231 242 244 245 242 241
200 194 197 198 174 181 203 188 208 221 241 203 205 185 222 233 245 269 161 215 221 208 219 210 207 211 210 207 203 202 201 197 192 194 194 194 193 191 191 192 189 189 190 188 189 189 187 186 185 186 189 188 189 189 191 192 194 197 197 198 198 195 194 193 193 195 191 193 193 194 189 200 200 204 207 211 207 201 196 200 203 205 203 204 207 207 212 216 223 224 228 230 235 238 237 236 238
199 202 193 201 199 196 210 203 225 244 222 113 209 180 245 273 283 229 246 238 226 219 223 220 209 208 207 207 203 201 198 196 196 194 195 196 191 190 191 190 188 186 189 188 189 190 187 187 185 188 190 187 187 190 191 193 197 197 197 197 196 193 194 196 198 200 197 197 191 194 197 201 202 207 208 207 208 201 201 200 202 207 206 203 200 203 206 209 213 225 225 229 232 233 236 234 238
202 201 203 209 210 204 212 204 209 225 263 187 166 167 231 190 227 163 216 231 230 212 222 224 221 215 208 205 199 198 197 198 195 193 197 198 193 189 191 190 189 189 190 189 189 188 185 185 184 187 188 187 187 189 193 194 199 198 197 197 195 194 196 197 202 203 201 197 198 199 199 200 203 205 206 204 196 197 200 199 202 207 205 204 202 201 202 203 211 224 232 231 237 230 230 231 230
198 198 207 214 214 195 232 194 225 242 236 211 181 216 105 210 359 309 283 262 233 208 213 210 213 212 208 198 198 198 199 197 193 194 197 197 192 188 190 191 190 189 189 190 189 186 183 184 182 186 187 185 188 188 191 192 195 195 197 196 195 194 195 198 200 197 200 197 197 200 199 199 204 201 198 193 196 199 202 204 202 208 206 204 204 205 202 203 204 220 231 231 233 227 237 233 233
182 191 206 211 190 204 227 254 234 350 248 245 184 243 244 322 285 258 236 226 229 216 217 216 217 206 189 197 199 199 199 197 197 198 198 194 189 187 191 192 191 190 189 189 187 184 184 183 183 185 188 187 189 190 191 191 192 193 197 195 195 194 195 197 201 203 207 202 201 202 204 205 201 200 198 195 198 198 203 204 206 207 204 205 205 205 205 205 200 213 225 227 228 223 230 238 235
137 207 206 159 197 225 225 236 186 226 238 216 185 237 234 200 256 212 225 223 231 216 214 217 220 193 191 203 200 199 198 197 197 196 194 188 187 189 192 193 193 192 190 188 184 180 181 183 184 185 186 188 189 189 191 191 191 191 191 194 196 197 198 202 204 203 200 197 196 199 204 198 203 203 199 196 195 198 203 201 207 206 206 206 209 207 206 206 204 215 226 234 231 220 225 237 239
225 230 149 180 185 206 209 230 229 219 226 237 209 244 245 221 220 137 201 215 225 220 219 221 211 194 205 207 205 201 199 197 197 196 189 187 190 190 191 194 195 193 189 189 182 182 184 185 188 189 190 190 188 189 191 192 191 191 192 192 193 195 198 200 201 198 192 196 202 200 204 206 201 195 190 190 194 203 203 204 207 209 206 207 206 209 204 208 207 223 228 233 228 226 229 234 234
252 159 183 205 221 210 198 208 257 233 244 226 231 229 245 215 237 237 228 203 219 218 205 220 213 192 202 209 207 198 195 197 198 196 194 192 192 191 192 193 192 190 187 186 184 187 189 188 186 190 191 189 188 190 190 191 192 192 191 190 192 193 194 196 196 192 193 199 201 202 203 202 197 196 198 194 200 206 206 209 210 213 214 210 208 209 207 208 207 224 229 231 225 223 225 230 234
197 205 216 182 223 258 220 206 214 208 231 232 230 242 238 222 186 226 234 220 223 223 214 213 209 203 206 203 199 196 195 198 199 196 195 194 194 194 194 192 193 190 185 183 186 189 189 188 189 188 187 188 189 190 190 191 188 192 188 187 189 191 195 196 197 196 198 201 200 202 202 204 194 199 196 198 201 206 207 209 215 215 216 212 207 206 204 209 210 220 228 232 234 233 234 235 230
316 312 230 228 210 187 200 222 203 222 223 226 214 244 269 166 160 208 231 238 221 214 217 218 216 208 207 205 203 194 193 198 197 197 196 195 193 194 193 189 186 185 185 185 189 187 187 190 189 188 189 188 189 189 191 188 189 190 191 191 193 193 195 195 198 199 200 200 200 199 198 194 197 199 198 203 204 207 208 209 213 214 213 214 209 204 205 203 208 213 222 226 230 231 234 241 242